| time (UTC) | temp F | wind direction | speed MPH | gust MPH | rain 1hr in | rain 24hr in | rain mn in | humidity % | barometer mb |
| 20260507023544 | 62 | 127 | 4.0 | 6.0 | 0.00 | 0.00 | 0.00 | ||
| 20260507022045 | 62 | 207 | 4.0 | 2.0 | 0.00 | 0.00 | 0.00 | ||
| 20260507020546 | 62 | 259 | 0.0 | 0.0 | 0.00 | 0.00 | 0.00 | ||
| 20260507015046 | 64 | 270 | 2.0 | 3.0 | 0.00 | 0.00 | 0.00 | ||
| 20260507013547 | 64 | 257 | 3.0 | 2.0 | 0.00 | 0.00 | 0.00 | ||
| 20260507012048 | 65 | 259 | 1.0 | 1.0 | 0.00 | 0.00 | 0.00 | ||
| 20260507010548 | 64 | 250 | 3.0 | 2.0 | 0.00 | 0.00 | 0.00 | ||
| 20260507005048 | 65 | 239 | 3.0 | 5.0 | 0.00 | 0.00 | 0.00 | ||
| 20260507002049 | 69 | 211 | 6.0 | 5.0 | 0.00 | 0.00 | 0.00 | ||
| 20260507000549 | 70 | 257 | 6.0 | 9.0 | 0.00 | 0.00 | 0.00 | ||
| 20260506235050 | 71 | 201 | 5.0 | 6.0 | 0.00 | 0.00 | 0.00 | ||
| 20260506233550 | 69 | 276 | 5.0 | 3.0 | 0.00 | 0.00 | 0.00 | ||
| 20260506232050 | 72 | 278 | 5.0 | 3.0 | 0.00 | 0.00 | 0.00 | ||
| 20260506230551 | 73 | 249 | 7.0 | 11.0 | 0.00 | 0.00 | 0.00 | ||
| 20260506225051 | 71 | 262 | 9.0 | 8.0 | 0.00 | 0.00 | 0.00 | ||
| 20260506223552 | 71 | 278 | 3.0 | 10.0 | 0.00 | 0.00 | 0.00 | ||
| 20260506222052 | 71 | 253 | 5.0 | 6.0 | 0.00 | 0.00 | 0.00 | ||
| 20260506215054 | 70 | 212 | 10.0 | 8.0 | 0.00 | 0.00 | 0.00 | ||
| 20260506213554 | 71 | 225 | 5.0 | 6.0 | 0.00 | 0.00 | 0.00 | ||
| 20260506212055 | 68 | 262 | 7.0 | 6.0 | 0.00 | 0.00 | 0.00 | ||
| 20260506210556 | 70 | 245 | 6.0 | 13.0 | 0.00 | 0.00 | 0.00 | ||
| 20260506205056 | 67 | 257 | 3.0 | 3.0 | 0.00 | 0.00 | 0.00 | ||
| 20260506203557 | 68 | 305 | 2.0 | 4.0 | 0.00 | 0.00 | 0.00 | ||
| 20260506202058 | 68 | 238 | 2.0 | 5.0 | 0.00 | 0.00 | 0.00 | ||
| 20260506200558 | 68 | 225 | 6.0 | 8.0 | 0.00 | 0.00 | 0.00 | ||
| 20260506195059 | 66 | 217 | 6.0 | 4.0 | 0.00 | 0.00 | 0.00 | ||
| 20260506192100 | 64 | 281 | 5.0 | 5.0 | 0.00 | 0.00 | 0.00 | ||
| 20260506190601 | 66 | 253 | 2.0 | 7.0 | 0.00 | 0.00 | 0.00 | ||
| 20260506185102 | 63 | 183 | 7.0 | 1.0 | 0.00 | 0.00 | 0.00 | ||
| 20260506183603 | 63 | 238 | 4.0 | 6.0 | 0.00 | 0.00 | 0.00 | ||
| 20260506180604 | 62 | 257 | 6.0 | 3.0 | 0.00 | 0.00 | 0.00 | ||
| 20260506175105 | 62 | 200 | 6.0 | 2.0 | 0.00 | 0.00 | 0.00 | ||
| 20260506173606 | 60 | 259 | 3.0 | 0.0 | 0.00 | 0.00 | 0.00 | ||
| 20260506172106 | 60 | 242 | 7.0 | 5.0 | 0.00 | 0.00 | 0.00 | ||
| 20260506170607 | 60 | 252 | 5.0 | 6.0 | 0.00 | 0.00 | 0.00 | ||
| 20260506165108 | 58 | 242 | 4.0 | 6.0 | 0.00 | 0.00 | 0.00 | ||
| 20260506163609 | 57 | 218 | 5.0 | 3.0 | 0.00 | 0.00 | 0.00 | ||
| 20260506162110 | 59 | 285 | 4.0 | 7.0 | 0.00 | 0.00 | 0.00 | ||
| 20260506160611 | 57 | 278 | 5.0 | 6.0 | 0.00 | 0.00 | 0.00 | ||
| 20260506155112 | 57 | 287 | 4.0 | 3.0 | 0.00 | 0.00 | 0.00 | ||
| 20260506153614 | 54 | 243 | 2.0 | 2.0 | 0.00 | 0.00 | 0.00 | ||
| 20260506152115 | 55 | 287 | 5.0 | 5.0 | 0.00 | 0.00 | 0.00 | ||
| 20260506150616 | 55 | 323 | 5.0 | 3.0 | 0.00 | 0.00 | 0.00 | ||
| 20260506145117 | 57 | 312 | 0.0 | 1.0 | 0.00 | 0.00 | 0.00 | ||
| 20260506143618 | 57 | 174 | 0.0 | 0.0 | 0.00 | 0.00 | 0.00 | ||
| 20260506142120 | 54 | 174 | 0.0 | 0.0 | 0.00 | 0.00 | 0.00 | ||
| 20260506140621 | 48 | 174 | 0.0 | 0.0 | 0.00 | 0.00 | 0.00 | ||
| 20260506135123 | 41 | 174 | 0.0 | 0.0 | 0.00 | 0.00 | 0.00 | ||
| 20260506133624 | 40 | 174 | 0.0 | 0.0 | 0.00 | 0.00 | 0.00 | ||
| 20260506130626 | 40 | 174 | 0.0 | 0.0 | 0.00 | 0.00 | 0.00 | ||
| 20260506125128 | 41 | 174 | 0.0 | 0.0 | 0.00 | 0.00 | 0.00 | ||
| 20260506123629 | 42 | 174 | 0.0 | 0.0 | 0.00 | 0.00 | 0.00 | ||
| 20260506122131 | 39 | 174 | 0.0 | 0.0 | 0.00 | 0.00 | 0.00 | ||
| 20260506120632 | 38 | 174 | 0.0 | 0.0 | 0.00 | 0.00 | 0.00 | ||
| 20260506115133 | 39 | 174 | 0.0 | 0.0 | 0.00 | 0.00 | 0.00 | ||
| 20260506113634 | 39 | 174 | 0.0 | 0.0 | 0.00 | 0.00 | 0.00 | ||
| 20260506112135 | 38 | 174 | 0.0 | 0.0 | 0.00 | 0.00 | 0.00 | ||
| 20260506105137 | 40 | 174 | 0.0 | 0.0 | 0.00 | 0.00 | 0.00 | ||
| 20260506102140 | 41 | 174 | 0.0 | 0.0 | 0.00 | 0.00 | 0.00 | ||
| 20260506100641 | 39 | 174 | 0.0 | 0.0 | 0.00 | 0.00 | 0.00 | ||
| 20260506095142 | 41 | 174 | 0.0 | 0.0 | 0.00 | 0.00 | 0.00 | ||
| 20260506093643 | 43 | 174 | 0.0 | 0.0 | 0.00 | 0.00 | 0.00 | ||
| 20260506092145 | 45 | 174 | 0.0 | 0.0 | 0.00 | 0.00 | 0.00 | ||
| 20260506090646 | 47 | 174 | 0.0 | 0.0 | 0.00 | 0.00 | 0.00 | ||
| 20260506085147 | 47 | 174 | 0.0 | 0.0 | 0.00 | 0.00 | 0.00 | ||
| 20260506083648 | 48 | 215 | 0.0 | 0.0 | 0.00 | 0.00 | 0.00 | ||
| 20260506082149 | 48 | 193 | 0.0 | 0.0 | 0.00 | 0.00 | 0.00 | ||
| 20260506080650 | 48 | 193 | 0.0 | 0.0 | 0.00 | 0.00 | 0.00 | ||
| 20260506072153 | 49 | 193 | 0.0 | 0.0 | 0.00 | 0.00 | 0.00 | ||
| 20260506070655 | 49 | 198 | 1.0 | 0.0 | 0.00 | 0.00 | 0.00 | ||
| 20260506062158 | 50 | 169 | 2.0 | 2.0 | 0.00 | 0.00 | 0.00 | ||
| 20260506060700 | 50 | 184 | 4.0 | 2.0 | 0.00 | 0.00 | 0.00 | ||
| 20260506050705 | 50 | 179 | 0.0 | 0.0 | 0.00 | 0.00 | 0.00 | ||
| 20260506043708 | 51 | 207 | 1.0 | 0.0 | 0.00 | 0.00 | 0.00 | ||
| 20260506042208 | 50 | 193 | 0.0 | 0.0 | 0.00 | 0.00 | 0.00 | ||
| 20260506040709 | 51 | 193 | 0.0 | 0.0 | 0.00 | 0.00 | 0.00 | ||
| 20260506035211 | 49 | 166 | 0.0 | 0.0 | 0.00 | 0.00 | 0.00 | ||
| 20260506033712 | 49 | 203 | 1.0 | 0.0 | 0.00 | 0.00 | 0.00 | ||
| 20260506032213 | 50 | 193 | 0.0 | 0.0 | 0.00 | 0.00 | 0.00 | ||
| 20260506030714 | 52 | 257 | 1.0 | 0.0 | 0.00 | 0.00 | 0.00 |